Weather History for New Philadelphia, OH

Change the Weather History Date:

Tuesday, April 1, 2014

  Actual Average Record
Temperature  
Mean Temperature 55 °F 46 °F  
Max Temperature 75 °F 58 °F 82 °F (1998)
Min Temperature 35 °F 34 °F 10 °F (1964)
Degree Days  
Heating Degree Days 10 19  
Month to date heating degree days 10 19  
Since 1 July heating degree days 5606 5005  
Cooling Degree Days 0 0  
Month to date cooling degree days 0 0  
Year to date cooling degree days 0 1  
Growing Degree Days 6 (Base 50)    
Moisture  
Dew Point 28 °F    
Average Humidity 45    
Maximum Humidity 75    
Minimum Humidity 15    
Precipitation  
Precipitation T in 0.11 in 1.00 in (1961)
Month to date precipitation T 0.11  
Year to date precipitation 5.70 8.11  
Sea Level Pressure  
Sea Level Pressure 29.97 in    
Wind  
Wind Speed 9 mph (SSW)    
Max Wind Speed 28 mph    
Max Gust Speed 40 mph    
Visibility 10 miles    
Events      
T = Trace of Precipitation, MM = Missing Value Source: NWS Daily Summary

Daily Weather History Graph

Daily Weather History Graph

Search for Another Location

Airport:

Trip Planner

Search our weather history database for the weather conditions in past years. The results will help you decide how hot, cold, wet, or windy it might be!

Date:

Astronomy

Apr. 01, 2014 Rise Set
Actual Time 7:09 AM EDT 7:50 PM EDT
Civil Twilight 6:41 AM EDT 8:17 PM EDT
Nautical Twilight 6:09 AM EDT 8:50 PM EDT
Astronomical Twilight 5:35 AM EDT 9:24 PM EDT
Moon 8:10 AM EDT (4/1) 10:11 PM EDT (4/1)
Length of Visible Light 13h 35m
Length of Day
12h 40m
Waxing Crescent, 4% of the Moon is Illuminated
Apr 1
Waxing Crescent
Apr 7
First Quarter
Apr 15
Full
Apr 22
Last Quarter
Apr 29
New

Hourly Weather History & Observations

Time (EDT) Temp. Windchill Dew Point Humidity Pressure Visibility Wind Dir Wind Speed Gust Speed Precip Events Conditions
12:53 AM 37.0 °F - 27.0 °F 67% 30.08 in 10.0 mi Calm Calm - N/A   Clear
1:53 AM 37.0 °F 31.6 °F 26.1 °F 65% 30.06 in 10.0 mi SE 6.9 mph - N/A   Clear
2:53 AM 36.0 °F - 28.9 °F 76% 30.06 in 10.0 mi Calm Calm - N/A   Clear
3:53 AM 37.0 °F - 28.0 °F 70% 30.05 in 10.0 mi Calm Calm - N/A   Clear
4:53 AM 37.9 °F 33.5 °F 28.9 °F 70% 30.03 in 10.0 mi ESE 5.8 mph - N/A   Clear
5:53 AM 37.9 °F 35.5 °F 28.9 °F 70% 30.03 in 10.0 mi ESE 3.5 mph - N/A   Clear
6:53 AM 39.0 °F - 30.0 °F 70% 30.02 in 10.0 mi Calm Calm - N/A   Clear
7:53 AM 41.0 °F 39.0 °F 28.9 °F 62% 30.04 in 10.0 mi SE 3.5 mph - N/A   Mostly Cloudy
8:53 AM 45.0 °F 41.2 °F 28.0 °F 52% 29.98 in 10.0 mi SE 6.9 mph - 0.00 in   Overcast
9:53 AM 48.0 °F - 28.0 °F 46% 29.98 in 10.0 mi SSE 3.5 mph - N/A   Overcast
10:53 AM 54.0 °F - 30.0 °F 40% 29.97 in 10.0 mi ESE 6.9 mph - N/A   Scattered Clouds
11:53 AM 66.0 °F - 34.0 °F 30% 29.92 in 10.0 mi SSW 10.4 mph 18.4 mph N/A   Clear
12:53 PM 69.1 °F - 37.0 °F 31% 29.88 in 10.0 mi South 12.7 mph 25.3 mph N/A   Clear
1:53 PM 73.0 °F - 34.0 °F 24% 29.86 in 10.0 mi SSW 19.6 mph 31.1 mph N/A   Clear
2:53 PM 75.0 °F - 27.0 °F 17% 29.85 in 10.0 mi WSW 19.6 mph 28.8 mph N/A   Clear
3:53 PM 73.9 °F - 28.0 °F 18% 29.86 in 10.0 mi SW 12.7 mph 34.5 mph N/A   Clear
4:53 PM 75.0 °F - 28.9 °F 18% 29.87 in 10.0 mi WSW 18.4 mph 31.1 mph N/A   Clear
5:53 PM 73.9 °F - 25.0 °F 16% 29.86 in 10.0 mi WSW 13.8 mph 26.5 mph N/A   Clear
6:53 PM 71.1 °F - 21.0 °F 15% 29.90 in 10.0 mi West 15.0 mph 31.1 mph N/A   Clear
7:53 PM 68.0 °F - 24.1 °F 19% 29.92 in 10.0 mi West 5.8 mph - N/A   Clear
8:53 PM 66.0 °F - 21.0 °F 18% 29.94 in 10.0 mi West 11.5 mph 16.1 mph N/A   Clear
9:53 PM 64.0 °F - 21.0 °F 19% 29.98 in 10.0 mi West 10.4 mph 18.4 mph N/A   Clear
10:53 PM 61.0 °F - 23.0 °F 23% 29.99 in 10.0 mi WNW 10.4 mph - N/A   Clear
11:53 PM 57.0 °F - 32.0 °F 39% 30.04 in 10.0 mi WNW 10.4 mph - N/A   Scattered Clouds